• Join FlightAware (Why Join?)
  • Login
  • US Flag 
07:09PM EDT


 

Airport Tracker/Info


-or-


 

Live Flight TrackerFlight Track Log ✈ N311JE ✈ 26-Jun-2013 ✈ KDPA - KRFD

Flight Track Log - Related Links

Times and Time Zones

All times are in EDT time to prevent confusion due to time zone crossing. See the N311JE flight status page for this flight to view local times or setup timezone preferences in your user account.

Time Position Orientation Groundspeed Altitude Reporting Facility
EDT Latitude Longitude Course Direction KTS MPH feet Rate Location/Type
08:13PM 41.9167 -88.2833 292° West 110 127 1,600  Level Chicago TRACON
08:14PM 41.9167 -88.3167 270° West 105 121 2,400 780 Climbing Chicago TRACON
08:15PM 41.9167 -88.3500 270° West 100 115 3,200 720 Climbing Chicago TRACON
08:16PM 41.9156 -88.3586 260° West 106 122 3,500 420 Climbing Chicago Center
08:17PM 41.9103 -88.4042 261° West 105 121 3,900 240 Climbing Chicago Center
08:18PM 41.9008 -88.4542 256° West 127 146 4,000 60 Climbing Chicago Center
08:19PM 41.9968 -88.5168 292° West  Level FlightAware Approximate
08:19PM 41.9106 -88.4942 288° West 142 163 4,100  Level Chicago Center
08:20PM 41.9383 -88.5439 307° West 141 162 4,100 -60 Level Chicago Center
08:21PM 41.9606 -88.5989 299° West 140 161 4,000 -60 Descending Chicago Center
08:22PM 41.9814 -88.6444 302° West 142 163 4,000  Level Chicago Center
08:23PM 42.0064 -88.6847 310° West 143 165 4,000  Level Chicago Center
08:24PM 42.0222 -88.7342 293° West 142 163 4,000  Level Chicago Center
08:25PM 42.0458 -88.7764 307° West 144 166 4,000  Level Chicago Center
08:26PM 42.0706 -88.8317 301° West 146 168 4,000  Level Chicago Center
08:27PM 42.0875 -88.8811 295° West 150 173 4,000  Level Chicago Center
08:28PM 42.0650 -88.9364 241° Southwest 168 193 4,000  Level Chicago Center
08:29PM 42.0456 -88.9861 242° Southwest 155 178 4,000  Level Chicago Center
08:30PM 42.0250 -89.0369 241° Southwest 137 158 4,000 -360 Level Chicago Center
08:31PM 42.0075 -89.0836 243° Southwest 137 158 3,300 -660 Descending Chicago Center
08:32PM 42.0317 -89.1128 318° Northwest 148 170 2,700 -480 Descending Chicago Center
08:33PM 42.0786 -89.1072 North 144 166 2,400 -300 Descending Chicago Center
08:35PM 42.1193 -89.0980 10° North  Level FlightAware Approximate
08:42PM 42.1833 -89.0833 North  Level FlightAware Approximate
08:43PM 42.1954 -89.0972 North  Level Estimated